When you browse on this site, cookies collect data to enhance your experience and personalize the content and advertising you see.
Visit our Privacy Policy to learn more. By continuing to use the site, you agree to this use of cookies and data.
  • Em Portugal
  • Lista de países
  • Para 7 dias
  • Temperatura da água
  • Mapa do tempo
  • Widgets de tempo
  • user-avatar
    Iniciar Sessão

    Previsão horária em Laya

    Hoje, 6 Junho, Sábado

    Tempo Temperatura Precipitação Vento Pressão Humidade
    00:00 +11°C° 0 mm 0 m/s 747 mmHg 84%
    01:00 +11°C° 0 mm 0 m/s 747 mmHg 86%
    02:00 +11°C° 0 mm 0 m/s 747 mmHg 88%
    03:00 +11°C° 0 mm 0 m/s 747 mmHg 89%
    04:00 +12°C° 0 mm 0 m/s 747 mmHg 92%
    05:00 +14°C° 0 mm 0 m/s 747 mmHg 84%
    06:00 +16°C° 0 mm 0 m/s 747 mmHg 76%
    07:00 +20°C° 0 mm 1 m/s 747 mmHg 68%
    08:00 +22°C° 0 mm 1 m/s 747 mmHg 60%
    09:00 +23°C° 0 mm 2 m/s 747 mmHg 51%
    10:00 +24°C° 0 mm 2 m/s 747 mmHg 43%
    11:00 +25°C° 0 mm 2 m/s 746 mmHg 41%
    12:00 +25°C° 0 mm 2 m/s 746 mmHg 39%
    13:00 +26°C° 0 mm 2 m/s 746 mmHg 38%
    14:00 +26°C° 0 mm 2 m/s 746 mmHg 38%
    15:00 +26°C° 0 mm 2 m/s 746 mmHg 38%
    16:00 +26°C° 0 mm 2 m/s 745 mmHg 37%
    17:00 +25°C° 0 mm 2 m/s 745 mmHg 45%
    18:00 +24°C° 0 mm 2 m/s 745 mmHg 52%
    19:00 +21°C° 0 mm 2 m/s 745 mmHg 59%
    20:00 +19°C° 0 mm 2 m/s 745 mmHg 64%
    21:00 +18°C° 0 mm 1 m/s 745 mmHg 69%
    22:00 +15°C° 0 mm 1 m/s 746 mmHg 75%
    23:00 +14°C° 0 mm 1 m/s 745 mmHg 75%

    Amanhã, 7 Junho, Domingo

    Tempo Temperatura Precipitação Vento Pressão Humidade
    00:00 +14°C° 0 mm 1 m/s 745 mmHg 75%
    01:00 +13°C° 0 mm 1 m/s 745 mmHg 75%
    02:00 +13°C° 0 mm 1 m/s 746 mmHg 74%
    03:00 +13°C° 0 mm 1 m/s 746 mmHg 74%
    04:00 +13°C° 0 mm 1 m/s 746 mmHg 73%
    05:00 +15°C° 0 mm 1 m/s 746 mmHg 67%
    06:00 +18°C° 0 mm 1 m/s 746 mmHg 61%
    07:00 +20°C° 0 mm 1 m/s 746 mmHg 54%
    08:00 +21°C° 0 mm 2 m/s 746 mmHg 48%
    09:00 +24°C° 0 mm 2 m/s 746 mmHg 41%
    10:00 +25°C° 0 mm 3 m/s 746 mmHg 35%
    11:00 +26°C° 0 mm 3 m/s 746 mmHg 33%
    12:00 +27°C° 0 mm 3 m/s 746 mmHg 32%
    13:00 +28°C° 0 mm 2 m/s 746 mmHg 30%
    14:00 +28°C° 0 mm 2 m/s 746 mmHg 31%
    15:00 +28°C° 0 mm 2 m/s 746 mmHg 31%
    16:00 +28°C° 0 mm 2 m/s 746 mmHg 32%
    17:00 +27°C° 0 mm 2 m/s 746 mmHg 41%
    18:00 +25°C° 0 mm 2 m/s 745 mmHg 49%
    19:00 +24°C° 0 mm 1 m/s 745 mmHg 58%
    20:00 +22°C° 0 mm 1 m/s 745 mmHg 62%
    21:00 +20°C° 0 mm 1 m/s 746 mmHg 66%
    22:00 +18°C° 0 mm 1 m/s 746 mmHg 70%
    23:00 +16°C° 0 mm 1 m/s 746 mmHg 73%

    Depois de amanhã, 8 Junho, Segunda-feira

    Tempo Temperatura Precipitação Vento Pressão Humidade
    00:00 +16°C° 0 mm 1 m/s 746 mmHg 75%
    01:00 +15°C° 0 mm 1 m/s 746 mmHg 78%
    02:00 +15°C° 0 mm 1 m/s 746 mmHg 79%
    03:00 +15°C° 0 mm 1 m/s 747 mmHg 80%
    04:00 +15°C° 0 mm 1 m/s 747 mmHg 82%
    05:00 +18°C° 0 mm 1 m/s 747 mmHg 74%
    06:00 +19°C° 0 mm 0 m/s 747 mmHg 67%
    07:00 +21°C° 0 mm 0 m/s 747 mmHg 60%
    08:00 +24°C° 0 mm 1 m/s 748 mmHg 53%
    09:00 +26°C° 0 mm 1 m/s 748 mmHg 45%
    10:00 +28°C° 0 mm 2 m/s 748 mmHg 38%
    11:00 +28°C° 0 mm 2 m/s 748 mmHg 36%
    12:00 +29°C° 0 mm 2 m/s 748 mmHg 34%
    13:00 +29°C° 0 mm 2 m/s 748 mmHg 32%
    14:00 +29°C° 0 mm 2 m/s 748 mmHg 33%
    15:00 +29°C° 0 mm 2 m/s 748 mmHg 35%
    16:00 +29°C° 0 mm 2 m/s 748 mmHg 36%
    17:00 +27°C° 0 mm 2 m/s 747 mmHg 43%
    18:00 +26°C° 0 mm 2 m/s 747 mmHg 49%
    19:00 +25°C° 0 mm 1 m/s 747 mmHg 56%
    20:00 +23°C° 0 mm 1 m/s 747 mmHg 60%
    21:00 +21°C° 0 mm 1 m/s 748 mmHg 63%
    22:00 +19°C° 0 mm 1 m/s 748 mmHg 67%
    23:00 +18°C° 0 mm 1 m/s 748 mmHg 69%

    9 Junho, Terça-feira

    Tempo Temperatura Precipitação Vento Pressão Humidade
    00:00 +18°C° 0 mm 1 m/s 748 mmHg 71%
    01:00 +16°C° 0 mm 1 m/s 749 mmHg 73%
    02:00 +16°C° 0 mm 1 m/s 749 mmHg 73%
    03:00 +16°C° 0 mm 1 m/s 749 mmHg 74%
    04:00 +16°C° 0 mm 1 m/s 749 mmHg 74%
    05:00 +19°C° 0 mm 1 m/s 750 mmHg 68%
    06:00 +21°C° 0 mm 1 m/s 750 mmHg 62%
    07:00 +24°C° 0 mm 1 m/s 750 mmHg 56%
    08:00 +25°C° 0 mm 1 m/s 750 mmHg 50%
    09:00 +27°C° 0 mm 1 m/s 750 mmHg 45%
    10:00 +28°C° 0 mm 2 m/s 750 mmHg 39%
    11:00 +29°C° 0 mm 1 m/s 750 mmHg 37%
    12:00 +29°C° 0 mm 1 m/s 750 mmHg 34%
    13:00 +30°C° 0 mm 1 m/s 750 mmHg 32%
    14:00 +30°C° 0 mm 2 m/s 750 mmHg 33%
    15:00 +30°C° 0 mm 2 m/s 749 mmHg 34%
    16:00 +30°C° 0 mm 2 m/s 749 mmHg 35%
    17:00 +28°C° 0 mm 2 m/s 749 mmHg 43%
    18:00 +27°C° 0 mm 2 m/s 749 mmHg 50%
    19:00 +26°C° 0 mm 2 m/s 749 mmHg 58%
    20:00 +24°C° 0 mm 2 m/s 749 mmHg 61%
    21:00 +21°C° 0 mm 2 m/s 749 mmHg 65%
    22:00 +19°C° 0 mm 2 m/s 749 mmHg 68%
    23:00 +19°C° 0 mm 1 m/s 749 mmHg 67%

    10 Junho, Quarta-feira

    Tempo Temperatura Precipitação Vento Pressão Humidade
    00:00 +19°C° 0 mm 1 m/s 749 mmHg 67%
    01:00 +18°C° 0 mm 1 m/s 749 mmHg 66%
    02:00 +18°C° 0 mm 1 m/s 749 mmHg 67%
    03:00 +16°C° 0 mm 1 m/s 749 mmHg 68%
    04:00 +16°C° 0 mm 1 m/s 749 mmHg 69%
    05:00 +19°C° 0 mm 1 m/s 749 mmHg 64%
    06:00 +22°C° 0 mm 1 m/s 749 mmHg 59%
    07:00 +24°C° 0 mm 1 m/s 749 mmHg 54%
    08:00 +25°C° 0 mm 2 m/s 749 mmHg 49%
    09:00 +27°C° 0 mm 2 m/s 749 mmHg 44%
    10:00 +28°C° 0 mm 2 m/s 749 mmHg 39%
    11:00 +29°C° 0 mm 3 m/s 749 mmHg 38%
    12:00 +29°C° 0 mm 3 m/s 749 mmHg 37%
    13:00 +30°C° 0 mm 3 m/s 749 mmHg 37%
    14:00 +30°C° 0 mm 3 m/s 748 mmHg 37%
    15:00 +29°C° 0 mm 3 m/s 748 mmHg 38%
    16:00 +29°C° 0 mm 3 m/s 748 mmHg 39%
    17:00 +28°C° 0 mm 3 m/s 748 mmHg 45%
    18:00 +27°C° 0 mm 2 m/s 747 mmHg 51%
    19:00 +26°C° 0 mm 2 m/s 747 mmHg 58%
    20:00 +24°C° 0 mm 2 m/s 747 mmHg 62%
    21:00 +21°C° 0 mm 2 m/s 747 mmHg 66%
    22:00 +20°C° 0 mm 1 m/s 747 mmHg 70%
    23:00 +20°C° 0 mm 1 m/s 747 mmHg 72%

    11 Junho, Quinta-feira

    Tempo Temperatura Precipitação Vento Pressão Humidade
    00:00 +19°C° 0 mm 1 m/s 747 mmHg 73%
    01:00 +19°C° 0 mm 1 m/s 747 mmHg 75%
    02:00 +18°C° 0 mm 1 m/s 747 mmHg 76%
    03:00 +18°C° 0 mm 1 m/s 747 mmHg 77%
    04:00 +17°C° 0 mm 2 m/s 747 mmHg 79%
    05:00 +19°C° 0 mm 2 m/s 747 mmHg 72%
    06:00 +21°C° 0 mm 2 m/s 746 mmHg 66%
    07:00 +24°C° 0 mm 2 m/s 746 mmHg 59%
    08:00 +26°C° 0 mm 2 m/s 746 mmHg 53%
    09:00 +27°C° 0 mm 3 m/s 746 mmHg 46%
    10:00 +28°C° 0 mm 3 m/s 746 mmHg 39%
    11:00 +29°C° 0 mm 4 m/s 745 mmHg 38%
    12:00 +30°C° 0 mm 4 m/s 745 mmHg 36%
    13:00 +30°C° 0 mm 4 m/s 744 mmHg 35%
    14:00 +29°C° 0 mm 4 m/s 744 mmHg 40%
    15:00 +27°C° 0 mm 4 m/s 743 mmHg 45%
    16:00 +26°C° 0 mm 4 m/s 743 mmHg 50%
    17:00 +25°C° 0 mm 4 m/s 742 mmHg 54%
    18:00 +23°C° 0 mm 4 m/s 742 mmHg 58%
    19:00 +22°C° 0 mm 3 m/s 742 mmHg 61%
    20:00 +21°C° 0 mm 3 m/s 741 mmHg 66%
    21:00 +20°C° 0 mm 3 m/s 741 mmHg 71%
    22:00 +19°C° 0 mm 3 m/s 741 mmHg 76%
    23:00 +18°C° 0 mm 3 m/s 740 mmHg 79%
    Mostrar mais